• In Belarus
  • List of Countries
  • For 7 days
  • Water Temperature
  • Satellite Maps
  • Weather Map
  • Weather Widgets
  • user-avatar
    Login

    Hourly Weather Laszkar Gah

    Today, 19 April, Thursday

    Time Temperature Precipitation Wind Pressure Humidity
    00:00 +22°C° 0.1 mm 4 mps 693 mmHg 35%
    01:00 +21°C° 0.1 mm 5 mps 693 mmHg 38%
    02:00 +20°C° 0.1 mm 4 mps 693 mmHg 43%
    03:00 +20°C° 0.1 mm 4 mps 693 mmHg 47%
    04:00 +19°C° 0 mm 3 mps 693 mmHg 49%
    05:00 +19°C° 0 mm 3 mps 693 mmHg 47%
    06:00 +19°C° 0 mm 3 mps 693 mmHg 45%
    07:00 +20°C° 0 mm 3 mps 693 mmHg 43%
    08:00 +21°C° 0 mm 4 mps 694 mmHg 39%
    09:00 +22°C° 0 mm 5 mps 694 mmHg 34%
    10:00 +23°C° 0 mm 6 mps 694 mmHg 28%
    11:00 +23°C° 0 mm 7 mps 694 mmHg 25%
    12:00 +24°C° 0 mm 7 mps 694 mmHg 21%
    13:00 +24°C° 0 mm 8 mps 694 mmHg 18%
    14:00 +23°C° 0 mm 9 mps 693 mmHg 18%
    15:00 +23°C° 0 mm 9 mps 693 mmHg 19%
    16:00 +21°C° 0 mm 10 mps 693 mmHg 20%
    17:00 +21°C° 0 mm 9 mps 693 mmHg 20%
    18:00 +20°C° 0 mm 8 mps 693 mmHg 20%
    19:00 +20°C° 0 mm 7 mps 693 mmHg 20%
    20:00 +18°C° 0 mm 7 mps 692 mmHg 20%
    21:00 +17°C° 0 mm 7 mps 692 mmHg 21%
    22:00 +17°C° 0 mm 7 mps 692 mmHg 21%
    23:00 +16°C° 0 mm 7 mps 692 mmHg 23%

    Tomorrow, 20 April, Friday

    Time Temperature Precipitation Wind Pressure Humidity
    00:00 +15°C° 0 mm 6 mps 692 mmHg 25%
    01:00 +14°C° 0 mm 6 mps 691 mmHg 28%
    02:00 +14°C° 0 mm 6 mps 691 mmHg 29%
    03:00 +13°C° 0 mm 5 mps 691 mmHg 31%
    04:00 +13°C° 0 mm 5 mps 690 mmHg 33%
    05:00 +13°C° 0 mm 4 mps 691 mmHg 32%
    06:00 +14°C° 0 mm 4 mps 691 mmHg 31%
    07:00 +14°C° 0 mm 3 mps 692 mmHg 30%
    08:00 +17°C° 0 mm 3 mps 692 mmHg 27%
    09:00 +18°C° 0 mm 3 mps 692 mmHg 23%
    10:00 +20°C° 0 mm 2 mps 693 mmHg 20%
    11:00 +21°C° 0 mm 3 mps 693 mmHg 17%
    12:00 +22°C° 0 mm 4 mps 693 mmHg 15%
    13:00 +23°C° 0 mm 4 mps 693 mmHg 12%
    14:00 +25°C° 0 mm 5 mps 692 mmHg 11%
    15:00 +25°C° 0 mm 5 mps 692 mmHg 10%
    16:00 +26°C° 0 mm 6 mps 691 mmHg 9%
    17:00 +25°C° 0 mm 5 mps 691 mmHg 10%
    18:00 +23°C° 0 mm 5 mps 691 mmHg 11%
    19:00 +22°C° 0 mm 4 mps 691 mmHg 11%
    20:00 +21°C° 0 mm 4 mps 692 mmHg 12%
    21:00 +21°C° 0 mm 3 mps 692 mmHg 13%
    22:00 +20°C° 0 mm 3 mps 692 mmHg 14%
    23:00 +20°C° 0 mm 3 mps 692 mmHg 15%

    Day after tomorrow, 21 April, Saturday

    Time Temperature Precipitation Wind Pressure Humidity
    00:00 +19°C° 0 mm 3 mps 692 mmHg 16%
    01:00 +18°C° 0 mm 2 mps 692 mmHg 17%
    02:00 +18°C° 0 mm 2 mps 691 mmHg 18%
    03:00 +17°C° 0 mm 2 mps 691 mmHg 19%
    04:00 +18°C° 0 mm 1 mps 691 mmHg 20%
    05:00 +19°C° 0 mm 1 mps 692 mmHg 19%
    06:00 +20°C° 0 mm 1 mps 693 mmHg 17%
    07:00 +21°C° 0 mm 1 mps 693 mmHg 16%
    08:00 +22°C° 0 mm 1 mps 694 mmHg 14%
    09:00 +23°C° 0 mm 1 mps 694 mmHg 12%
    10:00 +25°C° 0 mm 1 mps 694 mmHg 11%
    11:00 +26°C° 0 mm 1 mps 694 mmHg 10%
    12:00 +27°C° 0 mm 1 mps 694 mmHg 9%
    13:00 +28°C° 0 mm 2 mps 694 mmHg 9%
    14:00 +29°C° 0 mm 2 mps 694 mmHg 9%
    15:00 +29°C° 0 mm 2 mps 693 mmHg 8%
    16:00 +29°C° 0 mm 3 mps 693 mmHg 8%
    17:00 +29°C° 0 mm 2 mps 693 mmHg 10%
    18:00 +28°C° 0 mm 2 mps 693 mmHg 11%
    19:00 +27°C° 0 mm 1 mps 693 mmHg 12%
    20:00 +26°C° 0 mm 1 mps 693 mmHg 13%
    21:00 +25°C° 0 mm 1 mps 694 mmHg 15%
    22:00 +25°C° 0 mm 1 mps 694 mmHg 16%
    23:00 +24°C° 0 mm 1 mps 694 mmHg 16%

    22 April, Sunday

    Time Temperature Precipitation Wind Pressure Humidity
    00:00 +24°C° 0 mm 1 mps 694 mmHg 15%
    01:00 +23°C° 0 mm 2 mps 693 mmHg 15%
    02:00 +23°C° 0 mm 2 mps 693 mmHg 15%
    03:00 +23°C° 0 mm 2 mps 693 mmHg 16%
    04:00 +21°C° 0 mm 3 mps 693 mmHg 16%
    05:00 +22°C° 0 mm 3 mps 693 mmHg 15%
    06:00 +24°C° 0 mm 3 mps 694 mmHg 15%
    07:00 +24°C° 0 mm 3 mps 695 mmHg 14%
    08:00 +26°C° 0 mm 3 mps 695 mmHg 12%
    09:00 +28°C° 0 mm 3 mps 696 mmHg 11%
    10:00 +29°C° 0 mm 2 mps 696 mmHg 9%
    11:00 +30°C° 0 mm 2 mps 696 mmHg 8%
    12:00 +31°C° 0 mm 1 mps 695 mmHg 8%
    13:00 +30°C° 0 mm 0 mps 695 mmHg 7%
    14:00 +32°C° 0 mm 1 mps 694 mmHg 7%
    15:00 +33°C° 0 mm 1 mps 694 mmHg 7%
    16:00 +33°C° 0 mm 1 mps 694 mmHg 6%
    17:00 +32°C° 0 mm 1 mps 694 mmHg 8%
    18:00 +31°C° 0 mm 1 mps 694 mmHg 9%
    19:00 +31°C° 0 mm 1 mps 694 mmHg 10%
    20:00 +30°C° 0 mm 2 mps 694 mmHg 11%
    21:00 +29°C° 0 mm 2 mps 694 mmHg 11%
    22:00 +29°C° 0 mm 2 mps 695 mmHg 11%
    23:00 +28°C° 0 mm 2 mps 694 mmHg 12%

    23 April, Monday

    Time Temperature Precipitation Wind Pressure Humidity
    00:00 +27°C° 0 mm 3 mps 694 mmHg 12%
    01:00 +27°C° 0 mm 3 mps 694 mmHg 12%
    02:00 +26°C° 0 mm 3 mps 693 mmHg 13%
    03:00 +26°C° 0 mm 3 mps 693 mmHg 13%
    04:00 +25°C° 0 mm 3 mps 693 mmHg 14%
    05:00 +26°C° 0 mm 3 mps 694 mmHg 14%
    06:00 +27°C° 0 mm 3 mps 694 mmHg 13%
    07:00 +27°C° 0 mm 3 mps 695 mmHg 13%
    08:00 +29°C° 0 mm 3 mps 695 mmHg 11%
    09:00 +31°C° 0 mm 2 mps 695 mmHg 9%
    10:00 +34°C° 0 mm 2 mps 696 mmHg 8%
    11:00 +35°C° 0 mm 2 mps 695 mmHg 7%
    12:00 +35°C° 0 mm 1 mps 695 mmHg 6%
    13:00 +35°C° 0 mm 1 mps 694 mmHg 6%
    14:00 +36°C° 0 mm 1 mps 694 mmHg 6%
    15:00 +36°C° 0 mm 1 mps 694 mmHg 5%
    16:00 +36°C° 0 mm 1 mps 693 mmHg 5%
    17:00 +35°C° 0 mm 1 mps 693 mmHg 7%
    18:00 +34°C° 0 mm 1 mps 693 mmHg 8%
    19:00 +33°C° 0 mm 1 mps 693 mmHg 9%
    20:00 +32°C° 0 mm 2 mps 693 mmHg 9%
    21:00 +33°C° 0 mm 3 mps 694 mmHg 9%
    22:00 +31°C° 0 mm 3 mps 694 mmHg 9%
    23:00 +30°C° 0 mm 3 mps 693 mmHg 10%

    24 April, Tuesday

    Time Temperature Precipitation Wind Pressure Humidity
    00:00 +30°C° 0 mm 3 mps 693 mmHg 10%
    01:00 +29°C° 0 mm 3 mps 692 mmHg 11%
    02:00 +28°C° 0 mm 3 mps 692 mmHg 12%
    03:00 +28°C° 0 mm 3 mps 692 mmHg 13%
    04:00 +27°C° 0 mm 3 mps 692 mmHg 13%
    05:00 +28°C° 0 mm 3 mps 692 mmHg 13%
    06:00 +28°C° 0 mm 3 mps 693 mmHg 12%
    07:00 +29°C° 0 mm 3 mps 694 mmHg 12%
    08:00 +31°C° 0 mm 2 mps 694 mmHg 11%
    09:00 +34°C° 0 mm 2 mps 694 mmHg 9%
    10:00 +35°C° 0 mm 2 mps 695 mmHg 8%
    11:00 +37°C° 0 mm 2 mps 694 mmHg 8%
    12:00 +38°C° 0 mm 3 mps 694 mmHg 7%
    13:00 +39°C° 0 mm 3 mps 694 mmHg 7%
    14:00 +39°C° 0 mm 3 mps 693 mmHg 7%
    15:00 +40°C° 0 mm 4 mps 693 mmHg 7%
    16:00 +40°C° 0 mm 4 mps 692 mmHg 7%
    17:00 +38°C° 0 mm 4 mps 692 mmHg 8%
    18:00 +37°C° 0 mm 4 mps 692 mmHg 9%
    19:00 +36°C° 0 mm 4 mps 692 mmHg 11%
    20:00 +35°C° 0 mm 4 mps 692 mmHg 12%
    21:00 +34°C° 0 mm 4 mps 692 mmHg 13%
    22:00 +33°C° 0 mm 3 mps 692 mmHg 14%
    23:00 +31°C° 0 mm 3 mps 692 mmHg 15%
    Show more